COSMOS 715

Satellite information

Favourite Embed

Satellite Type and Status

PAYLOADIN ORBIT

Key statistics

Satellite COSMOS 715 at a glance.

Uptime

18393

Days in orbit

Revolutions

≈ 12.4

Per day

Orbit

LEO

Low Earth Orbit

Inclination

74.0

Latest

Satellite identification and parameters

Extended collection of information and parameters for COSMOS 715.

Object identification

Identified? True

Debris? False

Object name: COSMOS 715

International designator: 1975-016E

Object number (NORAD): 7682

Object ID (CCSDS): 7682

Country: COMMONWEALTH OF INDEPENDENT STATES (CIS)

Current information (Y/N): Y

RCS size: MEDIUM

Orbital parameters

Period: 115.687 minutes

Inclination: 74.0028 deg

SMA: 7864.712 km

Apoapsis: 1504.159 km

Periapsis: 1468.996 km

RAAN: 261.3854 deg

Eccentricy: 0.0022355

Argument of periapsis: 232.7289 deg

Mean anomaly: 247.4971 deg

Mean motion: 12.44739618 rev/day

Mean motion (dot): -0.00000008 rev/day2

B* drag term: 0.000058036 1/REarth

Two-line elements (TLE)

Creation date: July 8, 2025, 2:27 a.m.

Reference frame: TEME

Reference center: EARTH

Epoch: July 7, 2025, 4:33 p.m. UTC

TLE line 0: 0 COSMOS 715

TLE line 1: 1 07682U 75016E 25188.69020248 -.00000008 00000-0 58036-4 0 9992

TLE line 2: 2 07682 74.0028 261.3854 0022355 232.7289 247.4971 12.44739618859017

Live tracking on map

Real-time ground track for satellite COSMOS 715.

In-orbit conjunctions

There are no conjunctions computed for COSMOS 715, at the moment. Check back to stay up to date, as we update our databases every day.

Go to all conjunctions

Associated space launch

Military communications satellites

COSMOS 715 was lifted into orbit during the mission ‘Kosmos-3M | Strela-1M 81-88’, on board a Kosmos-3M space rocket.

The launch took place on Feb. 28, 1975, 2:01 p.m. from 132/2.

For more information about the launch, click the button.

Launch to space Kosmos-3M | Strela-1M 81-88
Kosmos-3M | Strela-1M 81-88

Agency: N/A

Status: Launch Successful

Launch date: Feb. 28, 1975, 2:01 p.m. UTC

Rocket: Kosmos-3M

Launch pad: 132/2

Location: Plesetsk Cosmodrome, Russian Federation

...

Latest news about this satellite

There are no fresh news available about this satellite. Check back as we update our databases every day.


Newsletter sign-up

Weekly statistics, charts and insights to help you stay on top of the space industry.